Location: Brede
(50.9167°N, 0.6000°E)
Time: 16:09:47
(UTC+00:00)

CZ-2D R/B - Pass Details

Date: 08 August 2020
Orbit: 552 x 639 km, 97.9° (Epoch: 22 September)

Event Time Altitude Azimuth Distance (km) Brightness Sun altitude
Rises 03:30:00 0° 12° (NNE) 2,811 7.8 -9.3°
Reaches altitude 10° 03:32:11 10° 10° (N) 1,894 6.8 -9.0°
Maximum altitude 03:36:15 68° 287° (WNW) 612 3.4 -8.5°
Drops below altitude 10° 03:40:12 10° 205° (SSW) 1,842 5.4 -8.0°
Enters shadow 03:40:44 - 204° (SSW) 2,060 5.7 -8.0°
